Location: Aulagny
(45.1643°N, 4.3096°E)
Time: 04:19:38
(UTC+00:00)

NOSS 3-2 (C) - Pass Details

Date: 21 October 2019
Orbit: 818 x 1394 km, 63.4° (Epoch: 06 November)

Event Time Altitude Azimuth Distance (km) Brightness Sun altitude
Rises 19:47:35 0° 238° (WSW) 3,420 6.9 -32.1°
Reaches altitude 10° 19:50:02 10° 244° (WSW) 2,535 6.2 -32.5°
Maximum altitude 19:55:42 48° 318° (NW) 1,233 4.2 -33.4°
Enters shadow 19:57:04 42° 353° (N) 1,372 4.3 -33.6°
